Other Public Products
Issued by NWS Grand Forks, ND

Home | Current Version | Previous Version | Graphics & Text | Print | Product List | Glossary On
Versions: 1 2 3 4 5 6 7 8 9 10 11 12 13 14 15 16 17 18 19 20 21 22 23 24 25 26 27 28 29 30 31 32 33 34 35 36 37 38 39 40 41 42 43 44 45 46 47 48 49 50
000
FPUS83 KFGF 021310
OPUFGF
PRAIRIE TO PINES WEATHER ROUNDUP
NATIONAL WEATHER SERVICE EASTERN NORTH DAKOTA/GRAND FORKS ND
700 AM CST MON MAR 02 2015

 **SATELLITE DATA USED TO AUGMENT SKY COVER AT AUTOMATED STATIONS**
 *****  WEATHER ACROSS EASTERN NORTH DAKOTA  *****

CITY           SKY/WX    TMP DP  RH WIND       PRES   REMARKS
GRAND FORKS    MOCLDY    -1  -6  79 S5        30.30F WCI -11
GRAND FORKS AF PTCLDY     2  -3  79 S5        30.29F WCI  -7
GRAND CITY NWS   N/A      0 N/A N/A SW3         N/A
BUXTON         NOT AVBL
DEVILS LAKE    PTCLDY     1  -8  66 S5        30.22F WCI  -8
FARGO          PTCLDY     4  -1  80 S7        30.37S WCI  -8
WAHPETON ARPT  SUNNY      0  -4  85 SE5       30.39F WCI -10
$$

 *****  WEATHER ACROSS CENTRAL AND WESTERN NORTH DAKOTA  *****

CITY           SKY/WX    TMP DP  RH WIND       PRES   REMARKS
JAMESTOWN      MOCLDY    -3  -7  82 S8        30.26F WCI -18
BISMARCK       PTCLDY     9   6  88 S12       30.21F WCI  -6
MINOT          PTCLDY     6   0  76 SE8       30.11F WCI  -7
MINOT AFB      PTCLDY     8   3  81 S14       30.11F WCI  -9
GARRISON         N/A      8   4  83 SE8       30.12F WCI  -4
WILLISTON      PTCLDY    13   5  70 S3        30.01F
DICKINSON      PTCLDY    12   6  77 S15       30.01F WCI  -4
HETTINGER      CLEAR     13   7  77 SE13      30.07F WCI  -2
$$

 *****  OTHER OBSERVATIONS NORTHEAST NORTH DAKOTA  *****

CITY           SKY/WX    TMP DP  RH WIND       PRES   REMARKS
WALHALLA         N/A      0   0 100 S3        30.26F
LANGDON        NOT AVBL
CAVALIER       FAIR       0  -2  92 S5        30.28F WCI -10
GRAFTON        NOT AVBL
CANDO          FAIR      -9 N/A N/A SE9       30.20F WCI -27
FORT TOTTEN    NOT AVBL
ROLLA          FAIR       0  -2  92 S12       30.14F WCI -18
RUGBY          FAIR       3   0  85 S10       30.17F WCI -12
 ***** THE ABOVE OBSERVATIONS ARE NON NWS ARE NOT QUALITY
        CONTROLLED AND MAY MIS-REPORT RAIN FOR SNOW...
$$

 *****  OTHER OBSERVATIONS SOUTHEAST NORTH DAKOTA *****

CITY           SKY/WX    TMP DP  RH WIND       PRES   REMARKS
COOPERSTOWN    NOT AVBL
VALLEY CITY      N/A     -4  -6  92 S12       30.29F WCI -22
OAKES            N/A      0  -2  92 S10       30.33F WCI -17
GWINNER        SUNNY      5   1  85 SW9       30.35F WCI  -9
BUFFALO        NOT AVBL
WYNDMERE         N/A      0  -4  85 SW3         N/A
 ***** THE ABOVE OBSERVATIONS ARE NON NWS ARE NOT QUALITY
       CONTROLLED AND MAY MIS-REPORT RAIN FOR SNOW...
$$

  *****  WEATHER ACROSS NORTHERN MINNESOTA  *****

CITY           SKY/WX    TMP DP  RH WIND       PRES   REMARKS
FLAG ISLAND    PTCLDY    -9 -13  84 S5        30.28F WCI -21
WARROAD        PTCLDY    -4  -8  84 S5        30.29F WCI -15
ROSEAU         PTCLDY    -6  -9  84 S6        30.29F WCI -18
HALLOCK        NOT AVBL
THF RVR FALLS  PTCLDY    -2  -6  84 CALM      30.31F
HALSTAD        NOT AVBL
FOSSTON        PTCLDY    -6  -9  84 S6        30.32F FOG     WCI -18
BAUDETTE       PTCLDY    -9 -12  87 S5        30.29F WCI -20
WASKISH        PTCLDY    -8  -9  92 CALM      30.32S
CROOKSTON      MOCLDY    -2  -8  78 S9        30.34F WCI -18
$$
  *****  WEATHER ACROSS CENTRAL AND WEST MINNESOTA  *****

CITY           SKY/WX    TMP DP  RH WIND       PRES   REMARKS
BEMIDJI        MOCLDY    -5  -9  86 CALM      30.31F
PARK RAPIDS    PTCLDY    -4  -9  79 CALM      30.32F
WADENA         MOCLDY    -6  -9  84 CALM      30.35S
DETROIT LAKES  CLOUDY     0  -4  85 S5        30.34F WCI -10
MOORHEAD       MOCLDY     1   0  92 S7        30.37S WCI -11
FERGUS FALLS   PTCLDY     1  -4  78 SE6       30.43S WCI -10
ELBOW LAKE     FAIR       3  -1  83 SE7       30.38F WCI -10
MORRIS MN      CLEAR      0  -4  85 SE6       30.38F WCI -12
STAPLES        PTCLDY    -6  -9  84 S3        30.36S
WHEATON        NOT AVBL
$$
  *****  WEATHER ELSEWHERE ACROSS MINNESOTA  *****

CITY           SKY/WX    TMP DP  RH WIND       PRES   REMARKS
DULUTH         PTCLDY     2  -3  80 W9        30.33R WCI -13
INTRNTL FALLS  MOCLDY    -9 -13  83 SW3       30.32R
ELY            NOT AVBL
CLOQUET        MOCLDY     1   0  92 W5        30.35R WCI  -8
BRAINERD       PTCLDY    -3  -6  87 CALM      30.37S
HIBBING        MOCLDY    -9 -15  75 CALM      30.33R
ALEXANDRIA     MOCLDY     2  -1  88 SW8       30.38R WCI -12
SAINT CLOUD    PTCLDY     0  -4  83 S5        30.43R WCI -10
MINNEAPOLIS    PTCLDY     9   5  84 SW6       30.47R WCI  -1
$$

  *****  WEATHER ACROSS SOUTH DAKOTA  *****

CITY           SKY/WX    TMP DP  RH WIND       PRES   REMARKS
SIOUX FALLS    PTCLDY     2  -3  80 CALM      30.41F
BROOKINGS      NOT AVBL
WATERTOWN      PTCLDY     0  -4  83 SE6       30.35F WCI -12
HURON          PTCLDY     8   6  92 S8        30.38F WCI  -4
SISSETON         N/A      6   0  76 SW10      30.37F WCI  -9
ABERDEEN       HAZE       4  -2  76 S5        30.36F VSB 1/2 WCI  -5
MITCHELL       PTCLDY    10   8  92 S7        30.40F WCI  -1
PIERRE         CLEAR     14  10  84 SE12      30.25F WCI   0
MOBRIDGE       CLEAR      8   4  83 SE9       30.21F WCI  -5
RAPID CITY     PTCLDY    16   8  71 S16       30.01F WCI   1
$$

  *****  SOME WEATHER IN NEARBY STATES *****

CITY           SKY/WX    TMP DP  RH WIND       PRES   REMARKS
GLASGOW MT     PTCLDY    16   8  71 SE15      29.84F WCI   1
GREAT FALLS MT CLOUDY    27  10  49 SW10      29.79R WCI  17
CHEYENNE WY    CLOUDY    20  16  84 S9        29.96F FOG     WCI   9
SCOTTSBLUFF NE CLOUDY    30  19  63 SE12      30.06F WCI  20
OMAHA NE       MOCLDY    21  14  74 CALM      30.47F
DES MOINES IA  MOCLDY    17  11  77 CALM      30.52R
DAVENPORT IA   PTCLDY     2  -2  83 N7        30.51S FOG     WCI -11
CHICAGO IL     PTCLDY    14   8  77 W10       30.47R WCI   1
EAU CLAIRE WI  PTCLDY     1  -3  83 CALM      30.44F
LA CROSSE WI   CLEAR     12   7  80 CALM      30.49R
$$

  *****  SOME NATIONAL WEATHER *****

CITY           SKY/WX    TMP DP  RH WIND       PRES   REMARKS
LA GUARDIA NY  CLOUDY    32  27  81 NW16      30.08R WCI  21
RALEIGH NC     FOG       38  36  92 W6        30.20R VSB 1/8
ATLANTA GA     FOG       47  45  93 NW5       30.31R VSB 1
NEW ORLEANS LA CLOUDY    61  59  93 SE6       30.26R FOG
OKLAHOMA CITY  CLOUDY    29  21  72 NE7       30.41F WCI  22
ALBUQUERQUE NM CLOUDY    37  30  75 N10       30.06R
SALT LAKE CITY CLOUDY    39  31  72 CALM      29.80F
LOS ANGELES CA PTCLDY    48  46  93 CALM      29.89S
BOISE ID       CLEAR     32  20  61 SE12      29.85S WCI  23
SEATTLE WA     CLOUDY    43  36  76 N12       29.99R
$$

*** WEATHER ACROSS MANITOBA...SASKATCHEWAN AND ONTARIO ***
                ***ONTARIO***

CITY           SKY/WX    TMP DP  RH WIND       PRES   REMARKS
GERALDTON      PTCLDY    -2  -8  78 W3        30.20R
THUNDER BAY    CLEAR      0  -4  85 W5        30.34R WCI -10
SIOUX LOOKOUT  CLEAR    -13 -18  77 S3        30.24S
TORONTO        MOSUNNY   21  16  79 W14       30.20R WCI   8
BIG TROUT LK   CLEAR    -15 -20  76 W8        30.07F WCI -32
PICKLE LAKE    CLEAR     -8 -13  77 W9        30.14S WCI -25
DRYDEN         CLEAR     -2  -4  92 SW8       30.23F WCI -17
KENORA         CLEAR     -4  -8  84 SW5       30.25S WCI -15
$$
                *** MANITOBA***

CITY           SKY/WX    TMP DP  RH WIND       PRES   REMARKS
BRANDON        PTCLDY   -15 -18  84 N2        30.14F
DAUPHIN        CLEAR     12   3  67 SW17      30.07F WCI  -5
ISLAND LAKE    PTCLDY    -9 -15  77 S5        30.06F WCI -21
PILOT MOUND      N/A     -8 -11  84 S7          N/A  WCI -22
THE PAS        NOT AVBL
THOMPSON       PTCLDY    -4 -11  71 VRB2      29.85F
WINNIPEG       CLEAR     -6 -11  77 S8        30.25F WCI -21
LYNN LAKE      PTCLDY     7   1  78 SW9       29.65F WCI  -7
CHURCHILL      CRYSTALS -22 -27  76 SW8       29.90F WCI -41
GILLAM         CLOUDY    -8 -15  71 S9        29.92F WCI -25
$$
                ***SASKATCHEWAN***

CITY           SKY/WX    TMP DP  RH WIND       PRES   REMARKS
ESTEVAN        MOCLDY     5   1  85 S12       30.00F WCI -11
KINDERSLEY     MOCLDY     9   3  78 SW5       29.71S WCI   0
LLOYDMINSTER   LGT SNOW  18  14  86 NW18G25   29.74R WCI   2
PRINCE ALBERT  MOCLDY     3  -2  78 S5        29.76F WCI  -6
REGINA         MOCLDY     3   0  85 SE22      29.86F WCI -19
YORKTON        CLEAR      1  -2  85 S12       29.95F WCI -15



USA.gov is the U.S. government's official web portal to all federal, state and local government web resources and services.